Location: *
(46.4000°N, 11.0500°E)
Time: 08:16:36
(UTC+00:00)

Daily predictions for brighter satellites

Satellite Brightness Start Highest point End
(mag) Time Altitude Azimuth Time Altitude Azimuth Time Altitude Azimuth
Cosmos 2184 Rocket 4.0 17:42:37 10° N 17:48:50 69° E 17:55:06 10° SSE
Okean 2 4.4 17:45:13 10° NNW 17:49:14 52° W 17:53:13 10° S
Okean 2 Rocket 3.5 17:45:31 10° SSW 17:49:59 70° W 17:54:29 10° N
YAOGAN 6 3.2 17:47:15 10° S 17:50:53 63° W 17:54:34 10° NNW
Cosmos 2237 Rocket 3.2 17:45:54 10° N 17:50:55 30° NE 17:55:55 10° ESE
USA 116 3.7 17:47:08 10° NNE 17:51:12 88° WNW 17:54:45 10° SSW
USA 234 4.1 17:45:24 10° NE 17:51:38 48° NNW 17:57:54 10° W
CSL-04 Rocket 4.1 17:49:18 10° S 17:54:47 71° WSW 18:00:22 10° NNW
Cosmos 1441 Rocket 3.7 17:52:10 10° SSE 17:55:43 38° E 17:59:15 10° NNE
SL-8 R/B 3.7 17:51:37 10° WSW 17:56:25 85° SSE 18:01:15 10° ENE
Lacrosse 4 Rocket 4.4 17:54:23 10° WNW 17:56:37 15° WSW 17:58:52 10° SW
GP-B 3.3 17:52:48 10° NNE 17:57:09 51° E 18:01:28 10° SSE
Cosmos 1025 Rocket 2.9 17:55:08 10° N 17:59:26 82° E 18:03:41 10° S
Cosmos 1980 4.4 17:55:12 10° NNW 18:00:25 36° NE 18:05:36 10° ESE
Cosmos 1536 Rocket 3.8 18:00:03 10° NNW 18:04:23 76° W 18:08:41 10° S
Cosmos 1378 3.7 18:01:01 10° NNW 18:04:44 62° W 18:08:26 10° S
SPOT 3 Rocket 4.3 18:01:51 10° SE 18:06:23 32° ENE 18:10:55 10° N
Meteor 2-15 Rocket 4.5 18:00:25 10° S 18:06:27 62° E 18:12:31 10° NNE
Meteor 2-15 4.4 18:00:31 10° S 18:06:38 76° E 18:12:48 10° NNE
ATLAS 2AS CENTAUR R/B 2.9 17:59:43 10° NW 18:07:31 86° NE 18:14:38 10° SE
NOSS 0 Rocket 4.1 18:02:26 10° NNW 18:08:33 57° ENE 18:14:39 10° SE
YAOGAN 1 3.8 18:07:20 10° S 18:11:29 45° W 18:15:39 10° NNW
CZ-4 R/B 3.5 18:08:56 10° SSW 18:12:23 30° W 18:15:55 10° NNW
USA 186 2.7 18:12:44 10° SE 18:15:47 32° ENE 18:18:53 10° N
Nadezhda 1 Rocket 3.9 18:10:53 10° S 18:16:54 71° E 18:22:59 10° NNE
Cosmos 2327 Rocket 4.5 18:10:57 10° N 18:17:14 85° E 18:23:23 10° S
ASTEX 1 3.7 18:12:54 10° NNE 18:17:35 44° E 18:22:13 10° SSE
Cosmos 1461 3.2 18:15:43 10° SW 18:19:42 66° NW 18:23:40 10° NNE
Cosmos 1707 2.9 18:16:12 10° N 18:20:02 50° ENE 18:23:50 10° SSE
SL-16 R/B 3.6 18:16:55 10° N 18:21:23 23° NE 18:24:38 14° E
Okean 1-7 Rocket 4.2 18:21:49 10° N 18:25:56 35° ENE 18:29:16 14° SE
Cosmos 1295 Rocket 4.5 18:19:51 10° N 18:26:00 61° ENE 18:32:02 10° SSE
COSMOS 2455 4.1 18:20:38 10° NW 18:26:15 42° WSW 18:31:49 10° S
Cosmos 2219 Rocket 2.5 18:21:05 10° NNW 18:26:40 71° WSW 18:32:13 10° SSE
Timation 2 Rocket 4.5 18:23:04 10° SW 18:29:37 67° WNW 18:35:55 10° NNE
SJ-6B 3.2 18:26:49 11° SE 18:30:33 46° ENE 18:34:29 10° N
ERBS 4.2 18:30:53 10° NNW 18:33:33 21° NNE 18:35:13 15° ENE
COSMOS 2428 3.2 18:28:56 10° NNW 18:34:32 61° WSW 18:40:06 10° S
Aureole 1 Rocket 4.3 18:30:41 10° NNW 18:35:36 44° WSW 18:39:23 10° S
H-2A R/B 2.4 18:33:13 16° SE 18:36:49 42° ENE 18:41:32 10° N
MOS 1 4.3 18:33:31 10° SSE 18:39:13 87° WSW 18:44:57 10° NNW
ISS -2.6 18:36:40 10° SSW 18:39:17 24° SE 18:39:17 24° SE
SJ-11-01 4.2 18:37:25 10° SSE 18:42:10 80° ENE 18:46:57 10° NNW
Cosmos 1939 Rocket 4.3 18:41:08 10° SSW 18:44:44 38° W 18:48:22 10° NNW
Cosmos 1190 Rocket 4.0 18:45:23 10° NNW 18:50:42 69° ENE 18:54:14 21° SSE
Lacrosse 5 rocket 2.5 18:48:07 10° S 18:49:56 21° SSE 18:49:56 21° SSE
SAR-Lupe-2 3.8 18:48:17 10° N 18:51:53 69° WNW 18:55:25 10° SSW
Cosmos 2227 Rocket 2.4 18:48:57 10° S 18:54:16 44° ESE 18:59:38 10° NE
Cosmos 2219 3.1 18:49:57 10° SSW 18:55:41 76° ESE 19:01:27 10° NNE
Cosmos 1544 Rocket 4.1 18:55:48 31° SE 18:57:04 38° E 19:01:13 10° NNE
ARGOS 3.2 18:53:49 20° SE 18:57:30 62° ENE 19:02:49 10° N
Cosmos 1455 Rocket 3.3 18:54:38 18° SSE 18:57:36 47° E 19:01:53 10° NNE
Cosmos 2341 Rocket 3.9 18:53:06 10° N 18:59:23 87° E 19:05:36 10° S
DELTA 2 R/B (1) 4.4 18:55:01 10° SW 18:59:54 31° SSE 19:01:14 28° SE
Cosmos 2181 Rocket 4.0 18:55:00 10° S 19:01:08 63° E 19:07:24 10° NNE
CZ-2C R/B 3.7 18:57:15 10° NNE 19:01:45 81° WNW 19:06:10 10° SSW
Cosmos 389 Rocket 2.5 18:59:17 10° NNW 19:02:42 72° W 19:04:29 26° S
Cosmos 2297 Rocket 2.2 18:59:26 10° S 19:04:57 56° ESE 19:10:29 10° NE
Meteor 1-15 Rocket 4.2 18:59:21 10° S 19:05:07 85° E 19:11:02 10° NNE
GEOS 3 Rocket 4.5 19:01:20 12° SSE 19:05:48 45° WSW 19:10:43 10° NW
Cosmos 2084 Rocket 3.7 19:02:17 10° SSW 19:06:33 46° ESE 19:07:33 39° E
Cosmos 1437 Rocket 2.9 19:10:58 10° N 19:14:27 50° ENE 19:14:27 50° ENE
NOSS 3-4 (A) 4.3 19:07:55 10° NW 19:14:49 59° WSW 19:20:46 17° SSE
NOSS 3-4 (C) 4.3 19:08:01 10° NW 19:14:55 60° WSW 19:20:50 17° SSE
Cosmos 405 Rocket 2.5 19:11:17 10° SSW 19:14:58 83° W 19:18:42 10° N
Cosmos 614 Rocket 4.2 19:10:04 10° NNW 19:15:17 71° WSW 19:18:31 23° S
Cosmos 1626 Rocket 4.1 19:12:40 10° N 19:16:27 39° ENE 19:16:27 39° ENE
Cosmos 2218 Rocket 3.9 19:11:23 10° N 19:17:48 74° E 19:21:36 26° SSE
MetOp-A 4.1 19:16:20 38° SE 19:18:15 62° ENE 19:23:33 10° N
Cosmos 2056 Rocket 3.5 19:14:22 10° SSW 19:19:48 89° ESE 19:25:15 10° NNE
Cosmos 2366 rocket 3.9 19:14:53 10° N 19:21:17 73° E 19:24:45 29° SSE
Cosmos 407 Rocket 3.9 19:16:47 10° NNW 19:21:50 59° WSW 19:25:02 22° S
Resurs 1-3 3.5 19:21:40 49° SSE 19:22:49 82° ENE 19:27:14 10° NNW
Cosmos 864 Rocket 4.4 19:18:21 10° N 19:24:35 74° E 19:27:42 32° SSE
Cosmos 1420 Rocket 4.3 19:26:32 46° E 19:26:32 46° E 19:31:10 10° NNE
GENESIS II 4.1 19:22:18 10° NW 19:26:27 90° S 19:26:43 77° SE
Cosmos 2333 Rocket 4.3 19:23:04 10° NW 19:27:31 24° WSW 19:31:58 10° SSW
Meteor 1-4 Rocket 3.4 19:24:46 10° NNW 19:28:12 46° W 19:29:05 37° SW
Meteor 1-24 Rocket 3.7 19:22:39 10° N 19:28:25 68° ENE 19:30:19 43° SE
Resurs 01 Rocket 1.5 19:29:23 66° SE 19:29:52 75° ENE 19:34:20 10° N
SL-08 RB Rocket 3.6 19:29:16 50° SSE 19:30:30 89° E 19:35:13 10° NNW
SL-8 Rocket 4.0 19:25:13 10° N 19:31:26 77° W 19:35:53 20° S
CZ-2C R/B 3.0 19:29:59 47° SSE 19:31:33 77° ENE 19:37:05 10° N
Cosmos 1624 Rocket 4.2 19:26:34 10° SSW 19:31:45 71° WNW 19:36:57 10° NNE
RESURS DK-1 3.8 19:29:35 10° N 19:32:24 25° NNE 19:32:24 25° NNE
USA 234 4.5 19:28:42 13° ENE 19:33:50 35° N 19:39:38 10° WNW
ADEOS Rocket 3.5 19:27:17 10° NNE 19:34:38 88° ESE 19:42:26 10° SSW
SL-24 R/B 4.1 19:34:08 63° SSE 19:34:50 83° ENE 19:39:48 10° NNW
Cosmos 2237 Rocket 2.9 19:29:44 10° NW 19:35:15 51° WSW 19:38:28 24° S
Cosmos 1602 Rocket 4.1 19:33:13 10° N 19:36:39 45° NE 19:36:39 45° NE
DMSP B5D2-2 4.2 19:33:34 10° NNE 19:38:19 52° E 19:38:19 52° E
SL-8 R/B 3.8 19:34:21 10° W 19:39:09 68° N 19:39:51 58° NE
ERS-1 Rocket 4.3 19:40:38 25° NE 19:40:38 25° NE 19:43:55 10° N
Cosmos 1674 3.1 19:36:54 10° N 19:39:57 57° NNW 19:39:57 57° NNW
Cosmos 1805 4.1 19:42:10 42° N 19:42:10 42° N 19:44:51 10° N
BREEZE-M DEB (TANK) 3.8 19:31:12 10° WNW 19:41:12 51° SW 19:41:49 47° S
Cosmos 1954 Rocket 4.0 19:38:29 10° NNW 19:43:43 76° WSW 19:44:49 55° S
Spot 2 Rocket 3.4 19:45:59 64° ENE 19:45:59 64° ENE 19:50:56 10° N
Cosmos 1140 Rocket 4.0 19:41:11 10° NNW 19:46:14 54° WSW 19:47:56 37° SSW
Meteor 2-5 Rocket 4.2 19:44:57 10° NNW 19:50:41 61° W 19:53:38 29° SSW
Meteor 1-22 Rocket 4.5 20:01:13 30° SSW 20:04:24 77° WNW 20:10:33 10° N
SL-16 R/B 2.2 20:00:26 10° NNW 20:06:06 74° WSW 20:06:31 70° SSW
Cosmos 1452 Rocket 4.1 20:15:45 48° NNE 20:15:45 48° NNE 20:19:33 10° NNE
H-2A R/B 3.8 20:13:51 17° SW 20:16:24 26° W 20:20:36 10° NW
SPOT 5 4.3 20:18:58 29° NNE 20:18:58 29° NNE 20:21:42 10° N
CZ-2C R/B 3.3 20:14:00 10° NNE 20:17:56 47° NNE 20:17:56 47° NNE
Cosmos 2082 4.0 20:15:23 10° SW 20:21:04 65° WNW 20:26:47 10° NNE
Meteor 2-12 Rocket 4.4 20:22:14 10° N 20:27:50 76° N 20:27:50 76° N
Cosmos 1934 Rocket 4.4 20:26:44 10° N 20:31:34 53° NNE 20:31:34 53° NNE
Cosmos 2227 Rocket 3.7 20:33:20 10° WSW 20:38:27 34° NW 20:43:36 10° NNE
Terra 3.7 20:49:58 24° N 20:49:58 24° N 20:51:54 10° N
Cosmos 2297 Rocket 4.0 20:44:31 10° WSW 20:49:21 28° NW 20:54:12 10° N
Nadezhda 3 Rocket 4.5 20:57:56 55° WNW 20:57:56 55° WNW 21:03:46 10° N
Resurs 01 Rocket 4.4 21:06:58 12° W 21:06:58 12° W 21:08:44 10° WNW
Cosmos 1943 4.4 21:03:08 10° NNW 21:06:39 39° NNW 21:06:39 39° NNW
USA 234 4.0 21:16:03 46° NNE 21:16:03 46° NNE 21:22:10 10° NW
CZ-4C R/B 4.1 21:12:04 10° NNW 21:17:56 30° NNE 21:18:32 29° NE
CZ-4C R/B 4.2 23:00:19 10° NW 23:03:40 32° NW 23:03:40 32° NW
